DateTimeUTC,F1_A11,F1_S11,BsB_S11,BsG_S11,BsR_S11,BbsB_S11,BbsG_S11,BbsR_S11,BaB_A11,BaG_A11,BaR_A11,Tu_S11,T_S11,Uu_S11,U_S11,P_S11,T1_A11
2021-06-30T13:00:00Z,00000200,20000000,,,,,,,0000.13,0000.27,0000.19,18.4,24.7,05.4,03.7,0662.1,31.1
2021-06-30T13:01:00Z,00000200,20000000,,,,,,,-000.11,-000.16,0000.16,18.4,24.7,05.4,03.7,0662.1,31.1
2021-06-30T13:02:00Z,00000200,20000000,,,,,,,0000.01,0000.34,0000.21,18.4,24.7,05.4,03.7,0662.1,31.1
2021-06-30T13:03:00Z,00000200,60000000,,,,,,,0000.52,-000.03,-000.00,18.4,24.7,05.4,03.7,0662.1,31.1
2021-06-30T13:04:00Z,00000200,40000000,0001.28,0000.69,0000.29,0000.44,-000.28,0000.14,-000.20,0000.02,0000.05,18.4,24.6,05.6,03.8,0663.0,31.0
2021-06-30T13:05:00Z,00000200,00000000,0001.05,0000.76,0000.27,0000.06,0000.22,0000.33,-000.11,-000.13,-000.34,18.5,24.5,05.6,03.8,0663.1,31.1
2021-06-30T13:06:00Z,00000200,00000000,0000.91,0000.35,-000.12,0000.22,0000.20,-000.05,0000.32,0000.25,0000.50,18.5,24.5,05.6,03.9,0663.1,31.1
2021-06-30T13:07:00Z,00000200,00000000,0000.83,0000.45,0000.19,-000.09,0000.16,0000.18,0000.42,0000.42,-000.01,18.5,24.5,05.5,03.8,0663.1,31.0
2021-06-30T13:08:00Z,00000200,00000000,0000.99,0000.65,0000.25,0000.80,0000.30,0000.02,-000.18,0000.08,-000.22,18.4,24.5,05.8,04.0,0663.2,31.0
2021-06-30T13:09:00Z,00000200,00000000,0001.08,0000.47,0000.27,0000.17,-000.03,-000.12,0000.32,0000.45,0000.50,18.4,24.5,05.7,04.0,0663.1,31.1
2021-06-30T13:10:00Z,00000200,00000000,0001.29,0000.59,0000.50,-000.21,-000.29,-000.10,0000.26,-000.06,0000.43,18.4,24.5,05.9,04.1,0663.2,31.1
2021-06-30T13:11:00Z,00000200,00000000,0001.25,0000.40,0000.25,0000.42,-000.00,-000.15,0000.73,0000.38,0000.05,18.5,24.5,06.0,04.2,0663.2,31.1
2021-06-30T13:12:00Z,00000200,00000000,0001.24,0000.10,0000.33,-000.14,0000.09,0000.02,-000.23,-000.11,-000.23,18.4,24.5,06.0,04.2,0663.2,31.1
2021-06-30T13:13:00Z,00000200,00000000,0001.14,0000.28,0000.25,-000.29,0000.25,0000.05,0000.32,0000.23,0000.37,18.4,24.5,06.1,04.2,0663.1,31.1
2021-06-30T13:14:00Z,00000200,00000000,0000.76,0000.45,-000.14,-000.11,0000.36,-000.06,-000.15,0000.08,0000.10,18.4,24.5,06.0,04.2,0663.1,31.1
2021-06-30T13:15:00Z,00000200,00000000,0001.22,0000.34,0000.17,0000.16,0000.14,0000.07,0000.20,0000.16,-000.21,18.4,24.5,06.0,04.1,0663.1,31.1
2021-06-30T13:16:00Z,00000200,00000000,0000.78,0000.61,0000.39,0000.29,-000.05,0000.30,0000.47,0000.13,0000.53,18.5,24.5,06.0,04.2,0663.1,31.1
2021-06-30T13:17:00Z,00000200,00000000,0001.37,0000.45,0000.25,0000.54,0000.38,0000.27,-000.15,-000.07,-000.38,18.4,24.5,06.0,04.2,0663.1,31.1
2021-06-30T13:18:00Z,00000200,00000000,0001.15,0000.21,0000.27,-000.18,0000.06,0000.07,0000.36,0000.05,0000.32,18.4,24.5,06.2,04.3,0663.2,31.1
2021-06-30T13:19:00Z,00000200,00000000,0001.67,0000.15,0000.10,0000.34,0000.28,0000.12,0000.18,0000.53,0000.40,18.4,24.5,06.2,04.3,0663.2,31.1
2021-06-30T13:20:00Z,00000200,00000000,0000.85,0000.29,0000.48,0000.51,0000.16,0000.11,-000.08,-000.08,-000.30,18.4,24.5,06.2,04.3,0663.1,31.1
2021-06-30T13:21:00Z,00000200,00000000,0001.35,0000.49,0000.51,0000.47,0000.04,0000.27,0000.23,0000.21,0000.32,18.4,24.4,06.1,04.2,0663.1,31.1
2021-06-30T13:22:00Z,00000200,00000000,0001.39,0000.81,0000.23,0000.57,0000.20,0000.23,0000.07,-000.08,-000.05,18.4,24.4,06.3,04.4,0663.3,31.1
2021-06-30T13:23:00Z,00000200,00000000,0000.63,0000.50,0000.22,0000.29,0000.26,-000.12,-000.05,0000.13,0000.05,18.4,24.4,06.3,04.3,0663.1,31.0
2021-06-30T13:24:00Z,00000200,00000000,0001.06,0000.50,0000.45,0000.29,0000.02,0000.15,0000.26,0000.34,0000.22,18.4,24.4,05.9,04.1,0663.1,31.0
2021-06-30T13:25:00Z,00000200,00000000,0000.94,0000.39,0000.18,0000.05,0000.02,0000.09,0000.30,-000.05,-000.08,18.4,24.4,06.1,04.2,0663.2,31.1
2021-06-30T13:26:00Z,00000200,00000000,0000.90,0000.18,0000.15,-000.28,0000.17,0000.20,-000.07,-000.14,0000.21,18.4,24.4,06.3,04.3,0663.1,31.0
2021-06-30T13:27:00Z,00000200,00000000,0000.90,0000.58,-000.01,0000.28,0000.11,-000.07,0000.26,0000.76,0000.03,18.4,24.4,06.1,04.2,0663.1,31.0
2021-06-30T13:28:00Z,00000200,00000000,0001.46,0000.16,0000.29,0000.14,-000.09,0000.06,0000.05,-000.32,-000.19,18.4,24.4,06.1,04.2,0663.1,31.0
2021-06-30T13:29:00Z,00000200,00000000,0001.28,0000.48,0000.40,-000.11,0000.25,0000.04,-000.11,-000.21,0000.29,18.3,24.4,06.1,04.2,0663.0,31.0
2021-06-30T13:30:00Z,00000200,00000000,0000.44,0000.32,0000.08,-000.10,0000.10,0000.10,0000.08,0000.20,0000.08,18.3,24.4,06.1,04.2,0663.1,31.0
2021-06-30T13:31:00Z,00000200,00000000,0000.86,0000.77,0000.25,0000.11,0000.22,0000.34,0000.32,0000.21,0000.04,18.3,24.4,06.0,04.2,0663.1,31.0
2021-06-30T13:32:00Z,00000200,00000000,0001.29,0000.32,0000.24,-000.02,-000.08,0000.04,0000.02,0000.25,0000.13,18.3,24.4,06.0,04.2,0663.1,31.0
2021-06-30T13:33:00Z,00000200,00000000,0001.04,0000.35,0000.08,0000.45,-000.14,0000.10,-000.08,-000.15,0000.16,18.3,24.4,05.9,04.1,0663.2,31.1
2021-06-30T13:34:00Z,00000200,00000000,0000.52,0000.17,0000.49,0000.09,0000.20,-000.10,0000.01,0000.16,-000.10,18.3,24.4,06.0,04.1,0663.1,31.0
2021-06-30T13:35:00Z,00000200,00000000,0000.36,0000.18,0000.15,0000.19,0000.33,0000.12,0000.09,-000.23,-000.15,18.3,24.3,05.8,04.0,0663.2,31.0
2021-06-30T13:36:00Z,00000200,00000000,0001.50,0000.55,0000.11,0000.06,0000.32,0000.45,0000.17,0000.32,0000.42,18.4,24.4,05.6,03.9,0663.3,31.0
2021-06-30T13:37:00Z,00000200,00000000,0001.43,0000.60,0000.24,-000.27,0000.09,0000.15,-000.12,0000.11,0000.09,18.3,24.4,05.6,03.9,0663.3,31.0
2021-06-30T13:38:00Z,00000200,00000000,0000.72,0000.52,0000.45,0000.46,0000.28,0000.22,0000.36,0000.02,-000.22,18.3,24.3,05.7,03.9,0663.3,31.1
2021-06-30T13:39:00Z,00000200,00000000,0000.58,0000.63,0000.26,0000.03,0000.29,0000.11,0000.26,0000.20,0000.32,18.3,24.3,05.7,03.9,0663.3,31.0
2021-06-30T13:40:00Z,00000200,00000000,0001.39,0000.04,0000.17,-000.13,0000.03,0000.11,-000.16,-000.05,-000.14,18.3,24.3,05.7,03.9,0663.3,31.0
2021-06-30T13:41:00Z,00000200,00000000,0000.70,0000.34,0000.18,-000.11,0000.04,0000.18,0000.11,-000.02,0000.03,18.3,24.3,05.6,03.9,0663.3,31.0
2021-06-30T13:42:00Z,00000200,00000000,0000.69,0000.69,-000.00,-000.19,0000.02,-000.12,0000.25,0000.20,0000.41,18.3,24.3,05.5,03.8,0663.4,31.0
2021-06-30T13:43:00Z,00000200,00000000,0000.92,0000.39,0000.13,-000.12,0000.17,0000.24,0000.28,0000.73,-000.15,18.3,24.3,05.8,04.0,0663.4,31.1
2021-06-30T13:44:00Z,00000200,00000000,0001.56,0000.36,0000.29,-000.10,0000.32,0000.14,0000.52,-000.15,0000.46,18.3,24.3,05.9,04.1,0663.4,31.1
2021-06-30T13:45:00Z,00000200,00000000,0000.85,0000.39,0000.21,0000.34,-000.12,0000.05,-000.38,0000.27,0000.06,18.3,24.3,05.8,04.0,0663.4,31.0
2021-06-30T13:46:00Z,00000200,00000000,0000.99,0000.44,0000.02,-000.07,0000.07,0000.21,0000.14,-000.13,-000.24,18.3,24.3,05.7,03.9,0663.4,31.0
2021-06-30T13:47:00Z,00000200,00000000,0000.64,0000.32,0000.25,-000.24,-000.06,-000.07,0000.47,0000.45,0000.22,18.3,24.3,05.8,04.0,0663.5,31.0
2021-06-30T13:48:00Z,00000200,00000000,0001.11,0000.48,0000.37,0000.40,0000.31,-000.07,0000.04,0000.08,0000.35,18.3,24.3,05.9,04.1,0663.5,31.0
2021-06-30T13:49:00Z,00000200,00000000,0000.81,0000.80,0000.56,0000.15,0000.08,-000.05,-000.38,-000.07,-000.09,18.3,24.3,05.9,04.1,0663.4,31.0
2021-06-30T13:50:00Z,00000200,00000000,0000.41,0000.60,0000.22,0000.10,0000.31,-000.03,0000.87,0000.03,0000.14,18.3,24.3,05.7,03.9,0663.4,31.0
2021-06-30T13:51:00Z,00000200,00000000,0001.00,0000.76,0000.22,0000.32,0000.21,-000.12,-000.15,0000.29,-000.04,18.3,24.3,05.9,04.1,0663.5,31.0
2021-06-30T13:52:00Z,00000200,00000000,0001.24,0000.40,0000.04,0000.58,0000.10,0000.05,0000.09,-000.02,0000.15,18.3,24.3,05.9,04.1,0663.4,31.0
2021-06-30T13:53:00Z,00000200,00000000,0001.22,0000.14,0000.16,0001.31,0000.19,0000.08,0000.17,0000.28,-000.13,18.3,24.3,05.9,04.1,0663.4,31.0
2021-06-30T13:54:00Z,00000200,00000000,0000.58,0000.41,0000.48,-000.12,0000.29,0000.16,0000.11,-000.06,0000.20,18.4,24.3,05.8,04.0,0663.4,31.1
2021-06-30T13:55:00Z,00000200,00000000,0000.90,0000.60,0000.06,-000.20,0000.21,0000.03,0000.38,0000.71,0000.38,18.4,24.4,05.9,04.1,0663.4,31.1
2021-06-30T13:56:00Z,00000200,00000000,0000.42,0000.09,0000.40,-000.09,0000.03,-000.00,-000.08,-000.24,-000.12,18.5,24.4,05.9,04.1,0663.5,31.2
2021-06-30T13:57:00Z,00000200,40000000,,,,,,,0000.19,0000.19,0000.31,18.6,24.5,05.6,03.9,0663.4,31.1
2021-06-30T13:58:00Z,00000200,60000000,,,,,,,-000.32,-000.32,-000.16,18.5,24.6,05.7,03.9,0662.4,31.1
2021-06-30T13:59:00Z,00000200,20000000,,,,,,,-000.15,0000.51,0000.12,18.5,24.7,05.7,03.9,0662.5,31.1
